Weather History for KIZG - June, 2012

Change the Weather History Date:

Friday, June 29, 2012

  Actual Average Record
Temperature  
Mean Temperature 70 °F -  
Max Temperature 87 °F 79 °F 91 °F (1997)
Min Temperature 54 °F 53 °F 44 °F (2001)
Cooling Degree Days 5    
Growing Degree Days 20 (Base 50)    
Moisture  
Dew Point 61 °F    
Average Humidity 75    
Maximum Humidity 97    
Minimum Humidity 44    
Precipitation  
Precipitation 0.07 in - - ()
Sea Level Pressure  
Sea Level Pressure 29.60 in    
Wind  
Wind Speed 2 mph (SW)    
Max Wind Speed 10 mph    
Max Gust Speed 18 mph    
Visibility 10 miles    
Events Rain    
Averages and records for this station are not official NWS values.
T = Trace of Precipitation, MM = Missing Value Source: NWS Daily Summary

Daily Weather History Graph

Daily Weather History Graph

Search for Another Location

Airport or City:

Trip Planner

Search our weather history database for the weather conditions in past years. The results will help you decide how hot, cold, wet, or windy it might be!

Date:

Astronomy

Jun. 29, 2012 Rise Set
Actual Time 5:04 AM EDT 8:30 PM EDT
Civil Twilight 4:27 AM EDT 9:06 PM EDT
Nautical Twilight 3:40 AM EDT 9:54 PM EDT
Astronomical Twilight 2:40 AM EDT 10:53 PM EDT
Moon 4:09 PM EDT (6/29) 1:18 AM EDT (6/29)
Length of Visible Light 16h 38m
Length of Day
15h 26m
Waxing Gibbous, 77% of the Moon is Illuminated
Jun 29
Waxing Gibbous
Jul 3
Full
Jul 10
Last Quarter
Jul 19
New
Jul 26
First Quarter

Hourly Weather History & Observations

Time (EDT) Temp. Heat Index Dew Point Humidity Pressure Visibility Wind Dir Wind Speed Gust Speed Precip Events Conditions
12:54 AM 57.0 °F - 55.9 °F 96% 29.71 in 10.0 mi Calm Calm - N/A   Clear
1:54 AM 55.0 °F - 54.0 °F 96% 29.70 in 10.0 mi Calm Calm - N/A   Clear
2:54 AM 55.9 °F - 54.0 °F 93% 29.69 in 10.0 mi Calm Calm - N/A   Clear
3:54 AM 54.0 °F - 53.1 °F 97% 29.67 in 10.0 mi Calm Calm - N/A   Clear
4:54 AM 55.9 °F - 54.0 °F 93% 29.65 in 10.0 mi Calm Calm - N/A   Clear
5:54 AM 57.9 °F - 55.9 °F 93% 29.68 in 10.0 mi Calm Calm - 0.01 in Rain Light Rain
6:54 AM 59.0 °F - 57.0 °F 93% 29.70 in 10.0 mi Calm Calm - 0.01 in Rain Light Rain
7:54 AM 60.1 °F - 57.9 °F 93% 29.69 in 10.0 mi Calm Calm - 0.04 in Rain Light Rain
8:54 AM 62.1 °F - 61.0 °F 96% 29.66 in 10.0 mi Calm Calm - 0.01 in Rain Light Rain
9:54 AM 64.9 °F - 62.1 °F 90% 29.63 in 10.0 mi Calm Calm - 0.00 in   Clear
10:54 AM 73.0 °F - 64.9 °F 76% 29.62 in 10.0 mi Calm Calm - N/A   Clear
11:54 AM 79.0 °F - 64.9 °F 62% 29.60 in 10.0 mi SSW 6.9 mph - N/A   Clear
12:54 PM 82.0 °F 83.8 °F 64.9 °F 56% 29.58 in 10.0 mi South 10.4 mph 16.1 mph N/A   Clear
1:54 PM 84.0 °F 86.3 °F 66.0 °F 55% 29.55 in 10.0 mi South 8.1 mph - N/A   Clear
2:54 PM 84.0 °F 86.5 °F 66.9 °F 56% 29.52 in 10.0 mi SSW 9.2 mph - N/A   Clear
3:54 PM 86.0 °F 89.4 °F 68.0 °F 55% 29.51 in 10.0 mi SSW 10.4 mph 16.1 mph N/A   Clear
4:54 PM 86.0 °F 90.7 °F 70.0 °F 59% 29.49 in 10.0 mi South 5.8 mph - N/A   Clear
5:54 PM 84.9 °F 88.2 °F 68.0 °F 57% 29.48 in 10.0 mi Variable 6.9 mph - N/A   Partly Cloudy
6:54 PM 84.0 °F 84.9 °F 63.0 °F 49% 29.51 in 10.0 mi West 6.9 mph - N/A   Partly Cloudy
7:54 PM 82.0 °F 82.0 °F 57.9 °F 44% 29.52 in 10.0 mi WNW 8.1 mph 18.4 mph N/A   Partly Cloudy
8:54 PM 75.9 °F - 57.0 °F 52% 29.54 in 10.0 mi Calm Calm - N/A   Clear
9:54 PM 68.0 °F - 60.1 °F 76% 29.59 in 10.0 mi Calm Calm - N/A   Clear
10:54 PM 66.0 °F - 60.1 °F 81% 29.60 in 10.0 mi Calm Calm - 0.00 in   Clear
11:54 PM 64.0 °F - 59.0 °F 84% 29.60 in 10.0 mi Calm Calm - N/A   Clear